Location: Newark
(25.6108°S, 54.5803°W)
Time: 21:14:34
(UTC+00:00)

Courier 1B - Pass Details

Date: 02 November 2020
Orbit: 962 x 1209 km, 28.3° (Epoch: 24 November)

Event Time Altitude Azimuth Distance (km) Brightness Sun altitude
Rises 08:01:25 0° 272° (W) 4,115 - -10.9°
Reaches altitude 10° 08:05:39 10° 292° (WNW) 3,136 - -10.0°
Exits shadow 08:06:21 12° 297° (WNW) 3,014 9.4 -9.8°
Maximum altitude 08:10:00 16° 327° (NNW) 2,685 9.3 -9.1°
Drops below altitude 10° 08:14:18 10° 1° (N) 3,069 9.9 -8.2°
Sets 08:18:23 0° 22° (NNE) 3,983 10.7 -7.3°
